Time,TemperatureF,DewpointF,PressureIn,WindDirection,WindDirectionDegrees,WindSpeedMPH,WindSpeedGustMPH,Humidity,HourlyPrecipIn,Conditions,Clouds,dailyrainin,SoftwareType,DateUTC
2013-03-25 00:00:00,39.1,33.5,29.66,SE,135,0.0,0.0,80,0.00,,,0.00,WUHU216HW,2013-03-25 07:00:00,
2013-03-25 00:05:00,38.9,33.3,29.66,SE,135,0.0,0.0,80,0.00,,,0.00,WUHU216HW,2013-03-25 07:05:00,
2013-03-25 00:10:00,38.9,33.3,29.66,SE,135,0.0,0.0,80,0.00,,,0.00,WUHU216HW,2013-03-25 07:10:00,
2013-03-25 00:15:00,38.7,33.1,29.66,SE,135,0.0,0.0,80,0.00,,,0.00,WUHU216HW,2013-03-25 07:15:00,
2013-03-25 00:20:00,38.7,33.4,29.66,SE,135,0.0,0.0,81,0.00,,,0.00,WUHU216HW,2013-03-25 07:20:00,
2013-03-25 00:25:00,38.5,33.2,29.66,SE,135,0.0,0.0,81,0.00,,,0.00,WUHU216HW,2013-03-25 07:25:00,
2013-03-25 00:30:00,38.5,33.2,29.66,SE,135,0.0,0.0,81,0.00,,,0.00,WUHU216HW,2013-03-25 07:30:00,
2013-03-25 00:35:00,38.3,33.0,29.66,SE,135,0.0,0.2,81,0.00,,,0.00,WUHU216HW,2013-03-25 07:35:00,
2013-03-25 00:40:00,38.2,33.1,29.65,SE,135,0.0,0.4,82,0.00,,,0.00,WUHU216HW,2013-03-25 07:40:00,
2013-03-25 00:45:00,38.2,32.9,29.65,SE,135,0.0,0.7,81,0.00,,,0.00,WUHU216HW,2013-03-25 07:45:00,
2013-03-25 00:50:00,38.0,32.9,29.65,SE,135,0.0,0.7,82,0.00,,,0.00,WUHU216HW,2013-03-25 07:50:00,
2013-03-25 00:55:00,37.8,32.8,29.65,SE,135,0.0,0.4,82,0.00,,,0.00,WUHU216HW,2013-03-25 07:55:00,
2013-03-25 01:00:00,37.8,32.8,29.65,SE,135,0.0,0.4,82,0.00,,,0.00,WUHU216HW,2013-03-25 08:00:00,
2013-03-25 01:05:00,37.6,32.6,29.65,SE,135,0.0,0.2,82,0.00,,,0.00,WUHU216HW,2013-03-25 08:05:00,
2013-03-25 01:10:00,37.4,32.4,29.65,SE,135,0.0,0.0,82,0.00,,,0.00,WUHU216HW,2013-03-25 08:10:00,
2013-03-25 01:15:00,37.6,32.6,29.65,SE,135,0.0,0.0,82,0.00,,,0.00,WUHU216HW,2013-03-25 08:15:00,
2013-03-25 01:20:00,37.4,32.4,29.65,SE,135,0.0,0.0,82,0.00,,,0.00,WUHU216HW,2013-03-25 08:20:00,
2013-03-25 01:25:00,37.3,32.2,29.65,SE,135,0.0,0.0,82,0.00,,,0.00,WUHU216HW,2013-03-25 08:25:00,
2013-03-25 01:30:00,37.1,32.4,29.65,SE,135,0.0,0.0,83,0.00,,,0.00,WUHU216HW,2013-03-25 08:30:00,
2013-03-25 01:35:00,37.1,32.4,29.64,SE,135,0.0,0.0,83,0.00,,,0.00,WUHU216HW,2013-03-25 08:35:00,
2013-03-25 01:40:00,36.7,32.1,29.64,SE,135,0.0,0.0,83,0.00,,,0.00,WUHU216HW,2013-03-25 08:40:00,
2013-03-25 01:45:00,36.5,31.9,29.64,SE,135,0.0,0.0,83,0.00,,,0.00,WUHU216HW,2013-03-25 08:45:00,
2013-03-25 01:50:00,36.4,31.7,29.64,SE,135,0.0,0.0,83,0.00,,,0.00,WUHU216HW,2013-03-25 08:50:00,
2013-03-25 01:55:00,36.0,31.3,29.64,SE,135,0.0,0.0,83,0.00,,,0.00,WUHU216HW,2013-03-25 08:55:00,
2013-03-25 02:00:00,36.0,31.6,29.64,SE,135,0.0,0.0,84,0.00,,,0.00,WUHU216HW,2013-03-25 09:00:00,
2013-03-25 02:05:00,35.8,31.4,29.64,SE,135,0.0,0.0,84,0.00,,,0.00,WUHU216HW,2013-03-25 09:05:00,
2013-03-25 02:10:00,35.6,31.2,29.64,SE,135,0.0,0.0,84,0.00,,,0.00,WUHU216HW,2013-03-25 09:10:00,
2013-03-25 02:15:00,35.6,31.2,29.64,SE,135,0.0,0.0,84,0.00,,,0.00,WUHU216HW,2013-03-25 09:15:00,
2013-03-25 02:20:00,35.5,31.1,29.64,SE,135,0.0,0.0,84,0.00,,,0.00,WUHU216HW,2013-03-25 09:20:00,
2013-03-25 02:25:00,35.3,30.9,29.64,SE,135,0.0,0.0,84,0.00,,,0.00,WUHU216HW,2013-03-25 09:25:00,
2013-03-25 02:30:00,35.3,30.9,29.64,SE,135,0.0,0.0,84,0.00,,,0.00,WUHU216HW,2013-03-25 09:30:00,
2013-03-25 02:35:00,35.1,30.7,29.64,SE,135,0.0,0.0,84,0.00,,,0.00,WUHU216HW,2013-03-25 09:35:00,
2013-03-25 02:40:00,34.9,30.5,29.64,SE,135,0.0,0.0,84,0.00,,,0.00,WUHU216HW,2013-03-25 09:40:00,
2013-03-25 02:45:00,34.9,30.8,29.64,SE,135,0.0,0.0,85,0.00,,,0.00,WUHU216HW,2013-03-25 09:45:00,
2013-03-25 02:50:00,34.9,30.5,29.64,SE,135,0.0,0.0,84,0.00,,,0.00,WUHU216HW,2013-03-25 09:50:00,
2013-03-25 02:55:00,34.7,30.3,29.64,SE,135,0.0,0.0,84,0.00,,,0.00,WUHU216HW,2013-03-25 09:55:00,
2013-03-25 03:00:00,34.6,30.2,29.63,SE,135,0.0,0.0,84,0.00,,,0.00,WUHU216HW,2013-03-25 10:00:00,
2013-03-25 03:05:00,34.4,30.0,29.64,SE,135,0.0,0.0,84,0.00,,,0.00,WUHU216HW,2013-03-25 10:05:00,
2013-03-25 03:10:00,34.2,29.8,29.63,SE,135,0.0,0.0,84,0.00,,,0.00,WUHU216HW,2013-03-25 10:10:00,
2013-03-25 03:15:00,34.0,29.6,29.63,SE,135,0.0,0.0,84,0.00,,,0.00,WUHU216HW,2013-03-25 10:15:00,
2013-03-25 03:20:00,33.8,29.7,29.63,SE,135,0.0,0.0,85,0.00,,,0.00,WUHU216HW,2013-03-25 10:20:00,
2013-03-25 03:25:00,33.8,29.7,29.63,SE,135,0.0,0.0,85,0.00,,,0.00,WUHU216HW,2013-03-25 10:25:00,
2013-03-25 03:30:00,33.7,29.5,29.63,SE,135,0.0,0.0,85,0.00,,,0.00,WUHU216HW,2013-03-25 10:30:00,
2013-03-25 03:35:00,33.7,29.5,29.62,SE,135,0.0,0.0,85,0.00,,,0.00,WUHU216HW,2013-03-25 10:35:00,
2013-03-25 03:40:00,33.7,29.5,29.63,SE,135,0.0,0.0,85,0.00,,,0.00,WUHU216HW,2013-03-25 10:40:00,
2013-03-25 03:45:00,33.5,29.3,29.63,SE,135,0.0,0.0,85,0.00,,,0.00,WUHU216HW,2013-03-25 10:45:00,
2013-03-25 03:50:00,33.3,29.3,29.63,SE,135,0.0,0.0,85,0.00,,,0.00,WUHU216HW,2013-03-25 10:50:00,
2013-03-25 03:55:00,33.1,29.1,29.63,SE,135,0.0,0.0,85,0.00,,,0.00,WUHU216HW,2013-03-25 10:55:00,
2013-03-25 04:00:00,32.9,29.2,29.63,SE,135,0.0,0.0,86,0.00,,,0.00,WUHU216HW,2013-03-25 11:00:00,
2013-03-25 04:05:00,32.9,29.2,29.63,SE,135,0.0,0.0,86,0.00,,,0.00,WUHU216HW,2013-03-25 11:05:00,
2013-03-25 04:10:00,33.1,29.3,29.63,SE,135,0.0,0.0,86,0.00,,,0.00,WUHU216HW,2013-03-25 11:10:00,
2013-03-25 04:15:00,32.9,29.2,29.63,SE,135,0.0,0.0,86,0.00,,,0.00,WUHU216HW,2013-03-25 11:15:00,
2013-03-25 04:20:00,32.9,29.2,29.63,SE,135,0.0,0.0,86,0.00,,,0.00,WUHU216HW,2013-03-25 11:20:00,
2013-03-25 04:25:00,32.8,29.0,29.62,SE,135,0.0,0.0,86,0.00,,,0.00,WUHU216HW,2013-03-25 11:25:00,
2013-03-25 04:30:00,32.8,29.0,29.62,SE,135,0.0,0.0,86,0.00,,,0.00,WUHU216HW,2013-03-25 11:30:00,
2013-03-25 04:35:00,32.6,28.9,29.62,SE,135,0.0,0.0,86,0.00,,,0.00,WUHU216HW,2013-03-25 11:35:00,
2013-03-25 04:40:00,32.6,28.9,29.62,SE,135,0.0,0.0,86,0.00,,,0.00,WUHU216HW,2013-03-25 11:40:00,
2013-03-25 04:45:00,32.6,28.9,29.62,SE,135,0.0,0.0,86,0.00,,,0.00,WUHU216HW,2013-03-25 11:45:00,
2013-03-25 04:50:00,32.4,28.7,29.63,SE,135,0.4,0.4,86,0.00,,,0.00,WUHU216HW,2013-03-25 11:50:00,
2013-03-25 04:55:00,32.4,28.7,29.62,SE,135,0.0,0.4,86,0.00,,,0.00,WUHU216HW,2013-03-25 11:55:00,
2013-03-25 05:00:00,32.4,28.7,29.62,SE,135,0.0,0.4,86,0.00,,,0.00,WUHU216HW,2013-03-25 12:00:00,
2013-03-25 05:05:00,32.4,28.7,29.62,SE,135,0.0,0.0,86,0.00,,,0.00,WUHU216HW,2013-03-25 12:05:00,
2013-03-25 05:10:00,32.2,28.5,29.62,SE,135,0.0,0.0,86,0.00,,,0.00,WUHU216HW,2013-03-25 12:10:00,
2013-03-25 05:15:00,32.2,28.5,29.62,SE,135,0.0,0.0,86,0.00,,,0.00,WUHU216HW,2013-03-25 12:15:00,
2013-03-25 05:20:00,32.2,28.5,29.62,SE,135,0.0,0.0,86,0.00,,,0.00,WUHU216HW,2013-03-25 12:20:00,
2013-03-25 05:25:00,32.2,28.5,29.62,SE,135,0.0,0.0,86,0.00,,,0.00,WUHU216HW,2013-03-25 12:25:00,
2013-03-25 05:30:00,32.0,28.4,29.62,SE,135,0.0,0.0,86,0.00,,,0.00,WUHU216HW,2013-03-25 12:30:00,
2013-03-25 05:35:00,32.0,28.4,29.62,SE,135,0.0,0.0,86,0.00,,,0.00,WUHU216HW,2013-03-25 12:35:00,
2013-03-25 05:40:00,32.0,28.4,29.62,SE,135,0.0,0.0,86,0.00,,,0.00,WUHU216HW,2013-03-25 12:40:00,
2013-03-25 05:45:00,31.9,28.4,29.62,SE,135,0.0,0.0,87,0.00,,,0.00,WUHU216HW,2013-03-25 12:45:00,
2013-03-25 05:50:00,31.9,28.4,29.62,SE,135,0.0,0.0,87,0.00,,,0.00,WUHU216HW,2013-03-25 12:50:00,
2013-03-25 05:55:00,31.9,28.4,29.62,SE,135,0.0,0.0,87,0.00,,,0.00,WUHU216HW,2013-03-25 12:55:00,
2013-03-25 06:00:00,32.0,28.6,29.62,SE,135,0.0,0.0,87,0.00,,,0.00,WUHU216HW,2013-03-25 13:00:00,
2013-03-25 06:05:00,32.0,28.6,29.62,SE,135,0.0,0.0,87,0.00,,,0.00,WUHU216HW,2013-03-25 13:05:00,
2013-03-25 06:10:00,32.0,28.6,29.61,SE,135,0.0,0.0,87,0.00,,,0.00,WUHU216HW,2013-03-25 13:10:00,
2013-03-25 06:15:00,32.0,28.6,29.61,SE,135,0.0,0.0,87,0.00,,,0.00,WUHU216HW,2013-03-25 13:15:00,
2013-03-25 06:20:00,32.0,28.6,29.61,SE,135,0.0,0.0,87,0.00,,,0.00,WUHU216HW,2013-03-25 13:20:00,
2013-03-25 06:25:00,32.0,28.6,29.61,SE,135,0.0,0.0,87,0.00,,,0.00,WUHU216HW,2013-03-25 13:25:00,
2013-03-25 06:30:00,31.9,28.4,29.61,SE,135,0.0,0.0,87,0.00,,,0.00,WUHU216HW,2013-03-25 13:30:00,
2013-03-25 06:35:00,31.7,28.3,29.61,SE,135,0.0,0.0,87,0.00,,,0.00,WUHU216HW,2013-03-25 13:35:00,
2013-03-25 06:40:00,31.7,28.3,29.61,SE,135,0.0,0.0,87,0.00,,,0.00,WUHU216HW,2013-03-25 13:40:00,
2013-03-25 06:45:00,31.7,28.6,29.61,SE,135,0.0,0.0,88,0.00,,,0.00,WUHU216HW,2013-03-25 13:45:00,
2013-03-25 06:50:00,31.5,28.1,29.61,SE,135,0.0,0.0,87,0.00,,,0.00,WUHU216HW,2013-03-25 13:50:00,
2013-03-25 06:55:00,31.3,28.3,29.61,SE,135,0.0,0.0,88,0.00,,,0.00,WUHU216HW,2013-03-25 13:55:00,
2013-03-25 07:00:00,31.3,28.3,29.61,SE,135,0.0,0.0,88,0.00,,,0.00,WUHU216HW,2013-03-25 14:00:00,
2013-03-25 07:05:00,31.3,28.3,29.61,SE,135,0.0,0.0,88,0.00,,,0.00,WUHU216HW,2013-03-25 14:05:00,
2013-03-25 07:10:00,31.5,28.5,29.61,SE,135,0.0,0.0,88,0.00,,,0.00,WUHU216HW,2013-03-25 14:10:00,
2013-03-25 07:15:00,31.3,28.3,29.61,SE,135,0.0,0.0,88,0.00,,,0.00,WUHU216HW,2013-03-25 14:15:00,
2013-03-25 07:20:00,31.3,28.3,29.61,SE,135,0.0,0.0,88,0.00,,,0.00,WUHU216HW,2013-03-25 14:20:00,
2013-03-25 07:25:00,31.3,28.3,29.61,SE,135,0.0,0.0,88,0.00,,,0.00,WUHU216HW,2013-03-25 14:25:00,
2013-03-25 07:30:00,31.3,28.3,29.61,SE,135,0.0,0.0,88,0.00,,,0.00,WUHU216HW,2013-03-25 14:30:00,
2013-03-25 07:35:00,31.5,28.5,29.61,SE,135,0.0,0.0,88,0.00,,,0.00,WUHU216HW,2013-03-25 14:35:00,
2013-03-25 07:40:00,31.5,28.5,29.61,SE,135,0.0,0.0,88,0.00,,,0.00,WUHU216HW,2013-03-25 14:40:00,
2013-03-25 07:45:00,31.5,28.5,29.61,SE,135,0.0,0.0,88,0.00,,,0.00,WUHU216HW,2013-03-25 14:45:00,
2013-03-25 07:50:00,31.5,28.5,29.61,SE,135,0.0,0.0,88,0.00,,,0.00,WUHU216HW,2013-03-25 14:50:00,
2013-03-25 07:55:00,31.7,28.6,29.61,SE,135,0.0,0.0,88,0.00,,,0.00,WUHU216HW,2013-03-25 14:55:00,
2013-03-25 08:00:00,31.7,28.6,29.61,SE,135,0.0,0.0,88,0.00,,,0.00,WUHU216HW,2013-03-25 15:00:00,
2013-03-25 08:05:00,32.0,29.0,29.61,SE,135,0.0,0.0,88,0.00,,,0.00,WUHU216HW,2013-03-25 15:05:00,
2013-03-25 08:10:00,32.2,29.1,29.61,SE,135,0.0,0.0,88,0.00,,,0.00,WUHU216HW,2013-03-25 15:10:00,
2013-03-25 08:15:00,32.4,29.3,29.61,SE,135,0.0,0.0,88,0.00,,,0.00,WUHU216HW,2013-03-25 15:15:00,
2013-03-25 08:20:00,32.8,29.6,29.61,SE,135,0.0,0.0,88,0.00,,,0.00,WUHU216HW,2013-03-25 15:20:00,
2013-03-25 08:25:00,32.8,29.6,29.61,SE,135,0.0,0.0,88,0.00,,,0.00,WUHU216HW,2013-03-25 15:25:00,
2013-03-25 08:30:00,32.8,29.6,29.61,SE,135,0.0,0.0,88,0.00,,,0.00,WUHU216HW,2013-03-25 15:30:00,
2013-03-25 08:35:00,32.9,29.8,29.61,SE,135,0.0,0.0,88,0.00,,,0.00,WUHU216HW,2013-03-25 15:35:00,
2013-03-25 08:40:00,33.1,30.3,29.61,North,0,0.0,0.0,89,0.00,,,0.00,WUHU216HW,2013-03-25 15:40:00,
2013-03-25 08:45:00,33.5,30.5,29.61,North,0,0.0,0.0,89,0.00,,,0.00,WUHU216HW,2013-03-25 15:45:00,
2013-03-25 08:50:00,33.8,30.9,29.61,North,0,0.0,0.0,89,0.00,,,0.00,WUHU216HW,2013-03-25 15:50:00,
2013-03-25 08:55:00,33.8,30.9,29.61,NE,45,0.0,0.0,89,0.00,,,0.00,WUHU216HW,2013-03-25 15:55:00,
2013-03-25 09:00:00,34.2,31.2,29.61,NE,45,0.0,0.0,89,0.00,,,0.00,WUHU216HW,2013-03-25 16:00:00,
2013-03-25 09:05:00,34.4,31.4,29.61,ESE,113,0.0,0.0,89,0.00,,,0.00,WUHU216HW,2013-03-25 16:05:00,
2013-03-25 09:10:00,34.7,31.8,29.61,NNE,23,0.0,0.7,89,0.00,,,0.00,WUHU216HW,2013-03-25 16:10:00,
2013-03-25 09:15:00,34.9,32.0,29.61,NE,45,0.0,0.7,89,0.00,,,0.00,WUHU216HW,2013-03-25 16:15:00,
2013-03-25 09:20:00,35.6,32.9,29.61,NE,45,0.0,0.4,90,0.00,,,0.00,WUHU216HW,2013-03-25 16:20:00,
2013-03-25 09:25:00,36.2,33.5,29.61,NE,45,0.0,0.4,90,0.00,,,0.00,WUHU216HW,2013-03-25 16:25:00,
2013-03-25 09:30:00,36.4,33.7,29.61,NW,315,0.4,1.1,90,0.00,,,0.00,WUHU216HW,2013-03-25 16:30:00,
2013-03-25 09:35:00,36.7,34.0,29.60,North,0,0.0,1.1,90,0.00,,,0.00,WUHU216HW,2013-03-25 16:35:00,
2013-03-25 09:40:00,37.3,34.6,29.60,North,0,0.0,1.1,90,0.00,,,0.00,WUHU216HW,2013-03-25 16:40:00,
2013-03-25 09:45:00,37.6,34.9,29.60,North,0,0.0,0.2,90,0.00,,,0.00,WUHU216HW,2013-03-25 16:45:00,
2013-03-25 09:50:00,38.0,35.3,29.60,SW,225,0.9,0.9,90,0.00,,,0.00,WUHU216HW,2013-03-25 16:50:00,
2013-03-25 09:55:00,38.5,36.1,29.60,SSE,158,0.0,0.9,91,0.00,,,0.00,WUHU216HW,2013-03-25 16:55:00,
2013-03-25 10:00:00,38.9,36.2,29.60,SE,135,0.0,0.4,90,0.00,,,0.00,WUHU216HW,2013-03-25 17:00:00,
2013-03-25 10:05:00,39.4,36.7,29.60,NE,45,0.0,0.2,90,0.00,,,0.00,WUHU216HW,2013-03-25 17:05:00,
2013-03-25 10:10:00,39.8,37.1,29.60,NE,45,0.0,0.0,90,0.00,,,0.00,WUHU216HW,2013-03-25 17:10:00,
2013-03-25 10:15:00,40.3,37.6,29.60,NE,45,0.0,0.0,90,0.00,,,0.00,WUHU216HW,2013-03-25 17:15:00,
2013-03-25 10:20:00,40.9,37.9,29.60,NE,45,0.0,0.0,89,0.00,,,0.00,WUHU216HW,2013-03-25 17:20:00,
2013-03-25 10:25:00,41.8,38.8,29.60,NE,45,0.0,0.0,89,0.00,,,0.00,WUHU216HW,2013-03-25 17:25:00,
2013-03-25 10:30:00,42.3,38.7,29.60,NE,45,0.0,0.0,87,0.00,,,0.00,WUHU216HW,2013-03-25 17:30:00,
2013-03-25 10:35:00,42.8,39.3,29.59,SW,225,0.0,0.0,87,0.00,,,0.00,WUHU216HW,2013-03-25 17:35:00,
2013-03-25 10:40:00,43.6,40.0,29.59,North,0,0.0,2.5,87,0.00,,,0.00,WUHU216HW,2013-03-25 17:40:00,
2013-03-25 10:45:00,44.3,40.1,29.59,NNW,338,1.3,2.5,85,0.00,,,0.00,WUHU216HW,2013-03-25 17:45:00,
2013-03-25 10:50:00,44.6,40.2,29.59,NNE,23,0.4,1.3,84,0.00,,,0.00,WUHU216HW,2013-03-25 17:50:00,
2013-03-25 10:55:00,45.0,39.9,29.59,WNW,293,1.1,1.1,82,0.00,,,0.00,WUHU216HW,2013-03-25 17:55:00,
2013-03-25 11:00:00,45.2,39.7,29.59,WNW,293,0.2,1.3,81,0.00,,,0.00,WUHU216HW,2013-03-25 18:00:00,
2013-03-25 11:05:00,45.7,39.6,29.59,SW,225,1.1,1.6,79,0.00,,,0.00,WUHU216HW,2013-03-25 18:05:00,
2013-03-25 11:10:00,46.3,39.8,29.59,ENE,68,0.0,2.5,78,0.00,,,0.00,WUHU216HW,2013-03-25 18:10:00,
2013-03-25 11:15:00,46.8,40.0,29.59,SSE,158,1.1,3.4,77,0.00,,,0.00,WUHU216HW,2013-03-25 18:15:00,
2013-03-25 11:20:00,47.2,40.0,29.59,North,0,0.2,3.4,76,0.00,,,0.00,WUHU216HW,2013-03-25 18:20:00,
2013-03-25 11:25:00,47.7,40.2,29.59,NNW,338,1.1,3.6,75,0.00,,,0.00,WUHU216HW,2013-03-25 18:25:00,
2013-03-25 11:30:00,47.9,39.2,29.59,North,0,1.1,3.6,72,0.00,,,0.00,WUHU216HW,2013-03-25 18:30:00,
2013-03-25 11:35:00,48.2,39.6,29.59,West,270,0.9,4.0,72,0.00,,,0.00,WUHU216HW,2013-03-25 18:35:00,
2013-03-25 11:40:00,48.6,37.7,29.59,South,180,1.1,4.0,66,0.00,,,0.00,WUHU216HW,2013-03-25 18:40:00,
2013-03-25 11:45:00,48.8,38.3,29.58,NNW,338,1.1,4.5,67,0.00,,,0.00,WUHU216HW,2013-03-25 18:45:00,
2013-03-25 11:50:00,49.1,38.3,29.59,NW,315,2.0,4.5,66,0.00,,,0.00,WUHU216HW,2013-03-25 18:50:00,
2013-03-25 11:55:00,49.7,39.5,29.58,WSW,248,1.8,3.4,68,0.00,,,0.00,WUHU216HW,2013-03-25 18:55:00,
2013-03-25 12:00:00,50.0,39.1,29.58,SW,225,1.6,3.4,66,0.00,,,0.00,WUHU216HW,2013-03-25 19:00:00,
2013-03-25 12:05:00,50.6,38.0,29.58,NW,315,2.9,3.4,62,0.00,,,0.00,WUHU216HW,2013-03-25 19:05:00,
2013-03-25 12:10:00,51.5,40.1,29.58,East,90,0.4,2.9,65,0.00,,,0.00,WUHU216HW,2013-03-25 19:10:00,
2013-03-25 12:15:00,52.9,39.4,29.58,SW,225,0.7,4.5,60,0.00,,,0.00,WUHU216HW,2013-03-25 19:15:00,
2013-03-25 12:20:00,54.7,38.8,29.58,NW,315,4.0,4.5,55,0.00,,,0.00,WUHU216HW,2013-03-25 19:20:00,
2013-03-25 12:25:00,56.9,43.6,29.57,NNW,338,2.2,4.0,61,0.00,,,0.00,WUHU216HW,2013-03-25 19:25:00,
2013-03-25 12:30:00,58.1,40.1,29.57,SSW,203,2.5,3.6,51,0.00,,,0.00,WUHU216HW,2013-03-25 19:30:00,
2013-03-25 12:35:00,57.4,39.1,29.57,NNW,338,0.7,3.6,50,0.00,,,0.00,WUHU216HW,2013-03-25 19:35:00,
2013-03-25 12:40:00,56.3,37.5,29.57,East,90,0.7,3.8,49,0.00,,,0.00,WUHU216HW,2013-03-25 19:40:00,
2013-03-25 12:45:00,55.6,36.7,29.57,ENE,68,2.5,4.3,49,0.00,,,0.00,WUHU216HW,2013-03-25 19:45:00,
2013-03-25 12:50:00,54.9,37.5,29.56,SE,135,0.4,4.3,52,0.00,,,0.00,WUHU216HW,2013-03-25 19:50:00,
2013-03-25 12:55:00,55.1,39.1,29.57,SSW,203,1.6,3.4,55,0.00,,,0.00,WUHU216HW,2013-03-25 19:55:00,
2013-03-25 13:00:00,55.1,37.7,29.56,WSW,248,1.6,2.5,52,0.00,,,0.00,WUHU216HW,2013-03-25 20:00:00,
2013-03-25 13:05:00,55.1,38.2,29.56,North,0,0.0,4.0,53,0.00,,,0.00,WUHU216HW,2013-03-25 20:05:00,
2013-03-25 13:10:00,55.3,37.4,29.56,SE,135,1.1,4.0,51,0.00,,,0.00,WUHU216HW,2013-03-25 20:10:00,
2013-03-25 13:15:00,56.5,35.9,29.56,NNE,23,2.5,3.6,46,0.00,,,0.00,WUHU216HW,2013-03-25 20:15:00,
2013-03-25 13:20:00,58.3,39.2,29.56,NNW,338,2.5,4.5,49,0.00,,,0.00,WUHU216HW,2013-03-25 20:20:00,
2013-03-25 13:25:00,59.8,39.4,29.56,NNE,23,0.9,4.5,47,0.00,,,0.00,WUHU216HW,2013-03-25 20:25:00,
2013-03-25 13:30:00,60.8,38.7,29.56,East,90,0.0,5.1,44,0.00,,,0.00,WUHU216HW,2013-03-25 20:30:00,
2013-03-25 13:35:00,62.5,41.9,29.55,SSW,203,1.1,5.1,47,0.00,,,0.00,WUHU216HW,2013-03-25 20:35:00,
2013-03-25 13:40:00,63.9,41.4,29.55,WNW,293,0.7,2.2,44,0.00,,,0.00,WUHU216HW,2013-03-25 20:40:00,
2013-03-25 13:45:00,65.0,41.9,29.55,ENE,68,0.0,2.2,43,0.00,,,0.00,WUHU216HW,2013-03-25 20:45:00,
2013-03-25 13:50:00,66.2,43.0,29.55,SE,135,1.1,2.0,43,0.00,,,0.00,WUHU216HW,2013-03-25 20:50:00,
2013-03-25 13:55:00,67.9,41.9,29.55,West,270,2.9,4.9,39,0.00,,,0.00,WUHU216HW,2013-03-25 20:55:00,
2013-03-25 14:00:00,68.8,43.5,29.54,NW,315,3.4,5.4,40,0.00,,,0.00,WUHU216HW,2013-03-25 21:00:00,
2013-03-25 14:05:00,69.8,43.8,29.54,North,0,0.4,5.4,39,0.00,,,0.00,WUHU216HW,2013-03-25 21:05:00,
2013-03-25 14:10:00,70.6,41.4,29.54,NW,315,0.4,5.4,35,0.00,,,0.00,WUHU216HW,2013-03-25 21:10:00,
2013-03-25 14:15:00,71.3,41.3,29.54,SW,225,2.0,5.4,34,0.00,,,0.00,WUHU216HW,2013-03-25 21:15:00,
2013-03-25 14:20:00,72.0,44.2,29.54,ESE,113,0.4,3.6,37,0.00,,,0.00,WUHU216HW,2013-03-25 21:20:00,
2013-03-25 14:25:00,73.1,42.8,29.53,ENE,68,1.3,3.4,34,0.00,,,0.00,WUHU216HW,2013-03-25 21:25:00,
2013-03-25 14:30:00,73.8,43.5,29.53,NW,315,0.7,3.4,34,0.00,,,0.00,WUHU216HW,2013-03-25 21:30:00,
2013-03-25 14:35:00,74.0,41.4,29.53,SW,225,3.1,4.7,31,0.00,,,0.00,WUHU216HW,2013-03-25 21:35:00,
2013-03-25 14:40:00,73.4,40.9,29.53,SSW,203,1.1,4.7,31,0.00,,,0.00,WUHU216HW,2013-03-25 21:40:00,
2013-03-25 14:45:00,73.1,39.9,29.52,SW,225,2.2,3.6,30,0.00,,,0.00,WUHU216HW,2013-03-25 21:45:00,
2013-03-25 14:50:00,73.1,41.4,29.53,West,270,0.2,3.6,32,0.00,,,0.00,WUHU216HW,2013-03-25 21:50:00,
2013-03-25 14:55:00,74.3,43.2,29.52,ESE,113,1.1,2.7,33,0.00,,,0.00,WUHU216HW,2013-03-25 21:55:00,
2013-03-25 15:00:00,74.2,40.8,29.52,WSW,248,0.9,3.6,30,0.00,,,0.00,WUHU216HW,2013-03-25 22:00:00,
2013-03-25 15:05:00,74.3,41.7,29.52,WSW,248,1.8,4.5,31,0.00,,,0.00,WUHU216HW,2013-03-25 22:05:00,
2013-03-25 15:10:00,74.2,41.6,29.52,SSE,158,0.7,4.7,31,0.00,,,0.00,WUHU216HW,2013-03-25 22:10:00,
2013-03-25 15:15:00,73.6,38.3,29.51,East,90,1.3,4.7,28,0.00,,,0.00,WUHU216HW,2013-03-25 22:15:00,
2013-03-25 15:20:00,72.0,40.5,29.51,NW,315,1.8,2.0,32,0.00,,,0.00,WUHU216HW,2013-03-25 22:20:00,
2013-03-25 15:25:00,69.5,36.7,29.51,SSE,158,1.1,3.6,30,0.00,,,0.00,WUHU216HW,2013-03-25 22:25:00,
2013-03-25 15:30:00,66.6,33.3,29.51,SE,135,3.1,3.8,29,0.00,,,0.00,WUHU216HW,2013-03-25 22:30:00,
2013-03-25 15:35:00,65.5,34.8,29.51,NW,315,2.5,4.0,32,0.00,,,0.00,WUHU216HW,2013-03-25 22:35:00,
2013-03-25 15:40:00,64.8,33.5,29.51,ESE,113,2.5,4.5,31,0.00,,,0.00,WUHU216HW,2013-03-25 22:40:00,
2013-03-25 15:45:00,63.5,34.5,29.51,SSW,203,0.0,4.7,34,0.00,,,0.00,WUHU216HW,2013-03-25 22:45:00,
2013-03-25 15:50:00,63.7,36.8,29.51,WSW,248,0.4,4.7,37,0.00,,,0.00,WUHU216HW,2013-03-25 22:50:00,
2013-03-25 15:55:00,63.9,37.0,29.51,WSW,248,0.4,4.0,37,0.00,,,0.00,WUHU216HW,2013-03-25 22:55:00,
2013-03-25 16:00:00,63.5,36.6,29.51,WSW,248,0.9,2.9,37,0.00,,,0.00,WUHU216HW,2013-03-25 23:00:00,
2013-03-25 16:05:00,63.0,36.9,29.51,West,270,0.0,2.7,38,0.00,,,0.00,WUHU216HW,2013-03-25 23:05:00,
2013-03-25 16:10:00,62.8,36.7,29.51,East,90,1.6,2.0,38,0.00,,,0.00,WUHU216HW,2013-03-25 23:10:00,
2013-03-25 16:15:00,62.5,35.6,29.50,WSW,248,1.6,3.6,37,0.00,,,0.00,WUHU216HW,2013-03-25 23:15:00,
2013-03-25 16:20:00,61.9,35.2,29.50,ESE,113,0.4,3.6,37,0.00,,,0.00,WUHU216HW,2013-03-25 23:20:00,
2013-03-25 16:25:00,61.6,34.8,29.50,NW,315,2.5,3.4,37,0.00,,,0.00,WUHU216HW,2013-03-25 23:25:00,
2013-03-25 16:30:00,61.2,35.3,29.50,SSE,158,2.0,4.5,38,0.00,,,0.00,WUHU216HW,2013-03-25 23:30:00,
2013-03-25 16:35:00,61.0,34.4,29.50,WSW,248,1.8,4.5,37,0.00,,,0.00,WUHU216HW,2013-03-25 23:35:00,
2013-03-25 16:40:00,60.8,34.9,29.50,SE,135,0.7,2.7,38,0.00,,,0.00,WUHU216HW,2013-03-25 23:40:00,
2013-03-25 16:45:00,60.5,35.3,29.49,WSW,248,1.6,2.7,39,0.00,,,0.00,WUHU216HW,2013-03-25 23:45:00,
2013-03-25 16:50:00,60.5,36.0,29.49,WNW,293,0.9,2.7,40,0.00,,,0.00,WUHU216HW,2013-03-25 23:50:00,
2013-03-25 16:55:00,60.3,35.2,29.49,NW,315,1.6,2.7,39,0.00,,,0.00,WUHU216HW,2013-03-25 23:55:00,
2013-03-25 17:00:00,60.3,36.5,29.49,WNW,293,1.1,2.7,41,0.00,,,0.00,WUHU216HW,2013-03-26 00:00:00,
2013-03-25 17:05:00,60.1,35.7,29.49,NW,315,2.9,2.9,40,0.00,,,0.00,WUHU216HW,2013-03-26 00:05:00,
2013-03-25 17:10:00,59.8,35.4,29.49,NNW,338,2.0,4.3,40,0.00,,,0.00,WUHU216HW,2013-03-26 00:10:00,
2013-03-25 17:15:00,59.4,34.4,29.49,NNW,338,0.2,4.3,39,0.00,,,0.00,WUHU216HW,2013-03-26 00:15:00,
2013-03-25 17:20:00,59.2,36.1,29.49,WNW,293,1.1,2.2,42,0.00,,,0.00,WUHU216HW,2013-03-26 00:20:00,
2013-03-25 17:25:00,58.9,36.9,29.49,West,270,1.1,1.8,44,0.00,,,0.00,WUHU216HW,2013-03-26 00:25:00,
2013-03-25 17:30:00,58.7,36.2,29.49,NW,315,2.9,2.9,43,0.00,,,0.00,WUHU216HW,2013-03-26 00:30:00,
2013-03-25 17:35:00,58.1,36.3,29.49,WNW,293,1.1,2.9,44,0.00,,,0.00,WUHU216HW,2013-03-26 00:35:00,
2013-03-25 17:40:00,58.0,36.1,29.49,WSW,248,0.4,2.9,44,0.00,,,0.00,WUHU216HW,2013-03-26 00:40:00,
2013-03-25 17:45:00,57.8,35.9,29.49,NW,315,0.4,3.1,44,0.00,,,0.00,WUHU216HW,2013-03-26 00:45:00,
2013-03-25 17:50:00,57.6,36.4,29.49,NW,315,0.2,3.1,45,0.00,,,0.00,WUHU216HW,2013-03-26 00:50:00,
2013-03-25 17:55:00,57.4,35.6,29.49,NW,315,0.9,2.0,44,0.00,,,0.00,WUHU216HW,2013-03-26 00:55:00,
2013-03-25 18:00:00,57.1,35.8,29.49,North,0,0.0,3.1,45,0.00,,,0.00,WUHU216HW,2013-03-26 01:00:00,
2013-03-25 18:05:00,56.9,36.3,29.48,SW,225,0.0,3.1,46,0.00,,,0.00,WUHU216HW,2013-03-26 01:05:00,
2013-03-25 18:10:00,56.5,35.9,29.48,SSE,158,0.0,0.9,46,0.00,,,0.00,WUHU216HW,2013-03-26 01:10:00,
2013-03-25 18:15:00,56.3,36.3,29.48,SE,135,0.0,0.4,47,0.00,,,0.00,WUHU216HW,2013-03-26 01:15:00,
2013-03-25 18:20:00,56.2,37.3,29.48,NNW,338,1.6,2.0,49,0.00,,,0.00,WUHU216HW,2013-03-26 01:20:00,
2013-03-25 18:25:00,56.0,37.1,29.48,NNW,338,0.0,2.0,49,0.00,,,0.00,WUHU216HW,2013-03-26 01:25:00,
2013-03-25 18:30:00,56.0,37.6,29.48,NNW,338,0.0,1.6,50,0.00,,,0.00,WUHU216HW,2013-03-26 01:30:00,
2013-03-25 18:35:00,55.8,37.4,29.48,SSE,158,0.4,1.1,50,0.00,,,0.00,WUHU216HW,2013-03-26 01:35:00,
2013-03-25 18:40:00,55.6,36.7,29.48,NW,315,0.9,3.1,49,0.00,,,0.00,WUHU216HW,2013-03-26 01:40:00,
2013-03-25 18:45:00,55.4,37.1,29.48,NW,315,1.1,3.1,50,0.00,,,0.00,WUHU216HW,2013-03-26 01:45:00,
2013-03-25 18:50:00,55.3,36.9,29.48,NW,315,0.2,1.8,50,0.00,,,0.00,WUHU216HW,2013-03-26 01:50:00,
2013-03-25 18:55:00,55.1,36.7,29.48,NNW,338,1.3,1.3,50,0.00,,,0.00,WUHU216HW,2013-03-26 01:55:00,
2013-03-25 19:00:00,54.7,36.9,29.48,West,270,0.0,1.3,51,0.00,,,0.00,WUHU216HW,2013-03-26 02:00:00,
2013-03-25 19:05:00,54.4,37.5,29.48,West,270,0.0,1.3,53,0.00,,,0.00,WUHU216HW,2013-03-26 02:05:00,
2013-03-25 19:10:00,54.0,37.6,29.48,NW,315,0.4,0.4,54,0.00,,,0.00,WUHU216HW,2013-03-26 02:10:00,
2013-03-25 19:15:00,53.8,38.0,29.49,NNW,338,0.0,0.4,55,0.00,,,0.00,WUHU216HW,2013-03-26 02:15:00,
2013-03-25 19:20:00,53.5,38.1,29.48,NNW,338,0.0,0.4,56,0.00,,,0.00,WUHU216HW,2013-03-26 02:20:00,
2013-03-25 19:25:00,52.9,38.1,29.49,NNW,338,0.0,0.0,57,0.00,,,0.00,WUHU216HW,2013-03-26 02:25:00,
2013-03-25 19:30:00,52.6,37.7,29.48,NNW,338,0.0,0.0,57,0.00,,,0.00,WUHU216HW,2013-03-26 02:30:00,
2013-03-25 19:35:00,52.2,37.8,29.48,NNW,338,0.0,0.0,58,0.00,,,0.00,WUHU216HW,2013-03-26 02:35:00,
2013-03-25 19:40:00,51.8,37.4,29.48,NNW,338,0.0,0.0,58,0.00,,,0.00,WUHU216HW,2013-03-26 02:40:00,
2013-03-25 19:45:00,51.5,37.5,29.48,NNW,338,0.0,0.0,59,0.00,,,0.00,WUHU216HW,2013-03-26 02:45:00,
2013-03-25 19:50:00,50.9,37.5,29.49,NNW,338,0.0,0.0,60,0.00,,,0.00,WUHU216HW,2013-03-26 02:50:00,
2013-03-25 19:55:00,50.6,37.6,29.49,NNW,338,0.0,0.0,61,0.00,,,0.00,WUHU216HW,2013-03-26 02:55:00,
2013-03-25 20:00:00,50.4,37.4,29.49,NNW,338,0.0,0.0,61,0.00,,,0.00,WUHU216HW,2013-03-26 03:00:00,
2013-03-25 20:05:00,50.0,37.5,29.49,NE,45,0.0,0.0,62,0.00,,,0.00,WUHU216HW,2013-03-26 03:05:00,
2013-03-25 20:10:00,49.9,37.7,29.49,NE,45,0.0,0.0,63,0.00,,,0.00,WUHU216HW,2013-03-26 03:10:00,
2013-03-25 20:15:00,49.7,37.5,29.49,NNW,338,0.0,0.7,63,0.00,,,0.00,WUHU216HW,2013-03-26 03:15:00,
2013-03-25 20:20:00,49.3,37.3,29.49,NE,45,0.4,0.7,63,0.00,,,0.00,WUHU216HW,2013-03-26 03:20:00,
2013-03-25 20:26:00,49.1,37.4,29.49,NNW,338,0.0,0.7,64,0.00,,,0.00,WUHU216HW,2013-03-26 03:26:00,
2013-03-25 20:31:00,49.0,37.3,29.49,NNW,338,0.0,0.7,64,0.00,,,0.00,WUHU216HW,2013-03-26 03:31:00,
2013-03-25 20:36:00,48.8,37.1,29.49,NNW,338,0.0,0.0,64,0.00,,,0.00,WUHU216HW,2013-03-26 03:36:00,
2013-03-25 20:40:00,48.8,37.5,29.49,NNW,338,0.0,0.0,65,0.00,,,0.00,WUHU216HW,2013-03-26 03:40:00,
2013-03-25 20:45:00,48.6,37.4,29.49,NNW,338,0.0,0.0,65,0.00,,,0.00,WUHU216HW,2013-03-26 03:45:00,
2013-03-25 20:50:00,48.6,37.4,29.49,NNW,338,0.0,0.0,65,0.00,,,0.00,WUHU216HW,2013-03-26 03:50:00,
2013-03-25 20:55:00,48.4,37.2,29.49,NNW,338,0.0,0.0,65,0.00,,,0.00,WUHU216HW,2013-03-26 03:55:00,
2013-03-25 21:00:00,48.4,37.5,29.49,NNW,338,0.0,0.0,66,0.00,,,0.00,WUHU216HW,2013-03-26 04:00:00,
2013-03-25 21:05:00,48.2,37.4,29.49,NNW,338,0.0,0.0,66,0.00,,,0.00,WUHU216HW,2013-03-26 04:05:00,
2013-03-25 21:10:00,48.2,37.7,29.49,NNW,338,0.0,0.0,67,0.00,,,0.00,WUHU216HW,2013-03-26 04:10:00,
2013-03-25 21:15:00,48.2,37.7,29.49,NNW,338,0.0,0.0,67,0.00,,,0.00,WUHU216HW,2013-03-26 04:15:00,
2013-03-25 21:20:00,48.1,37.6,29.49,NNW,338,0.0,0.0,67,0.00,,,0.00,WUHU216HW,2013-03-26 04:20:00,
2013-03-25 21:25:00,48.1,38.0,29.50,NNW,338,0.0,0.0,68,0.00,,,0.00,WUHU216HW,2013-03-26 04:25:00,
2013-03-25 21:30:00,47.9,37.8,29.50,NNW,338,0.0,0.0,68,0.00,,,0.00,WUHU216HW,2013-03-26 04:30:00,
2013-03-25 21:35:00,47.5,37.4,29.50,NNW,338,0.0,0.0,68,0.00,,,0.00,WUHU216HW,2013-03-26 04:35:00,
2013-03-25 21:40:00,47.5,37.4,29.50,NNW,338,0.0,0.0,68,0.00,,,0.00,WUHU216HW,2013-03-26 04:40:00,
2013-03-25 21:45:00,47.3,37.3,29.50,NNW,338,0.0,0.0,68,0.00,,,0.00,WUHU216HW,2013-03-26 04:45:00,
2013-03-25 21:50:00,47.2,37.5,29.50,NNW,338,0.0,0.0,69,0.00,,,0.00,WUHU216HW,2013-03-26 04:50:00,
2013-03-25 21:55:00,47.2,37.5,29.50,NNW,338,0.0,0.0,69,0.00,,,0.00,WUHU216HW,2013-03-26 04:55:00,
2013-03-25 22:00:00,47.2,37.9,29.51,NNW,338,0.0,0.0,70,0.00,,,0.00,WUHU216HW,2013-03-26 05:00:00,
2013-03-25 22:05:00,47.2,37.9,29.50,NNW,338,0.0,0.0,70,0.00,,,0.00,WUHU216HW,2013-03-26 05:05:00,
2013-03-25 22:10:00,47.2,37.9,29.50,North,0,0.0,0.0,70,0.00,,,0.00,WUHU216HW,2013-03-26 05:10:00,
2013-03-25 22:15:00,47.2,37.9,29.51,NE,45,0.0,0.0,70,0.00,,,0.00,WUHU216HW,2013-03-26 05:15:00,
2013-03-25 22:20:00,47.0,37.7,29.51,NE,45,0.0,0.0,70,0.00,,,0.00,WUHU216HW,2013-03-26 05:20:00,
2013-03-25 22:25:00,46.8,37.9,29.51,NE,45,0.0,0.0,71,0.00,,,0.00,WUHU216HW,2013-03-26 05:25:00,
2013-03-25 22:30:00,46.8,37.9,29.51,NE,45,0.0,0.0,71,0.00,,,0.00,WUHU216HW,2013-03-26 05:30:00,
2013-03-25 22:35:00,46.8,37.9,29.51,NE,45,0.0,0.0,71,0.00,,,0.00,WUHU216HW,2013-03-26 05:35:00,
2013-03-25 22:40:00,46.8,38.3,29.50,NE,45,0.0,0.0,72,0.00,,,0.00,WUHU216HW,2013-03-26 05:40:00,
2013-03-25 22:45:00,46.8,37.9,29.50,NE,45,0.0,0.0,71,0.00,,,0.00,WUHU216HW,2013-03-26 05:45:00,
2013-03-25 22:50:00,46.8,37.9,29.50,NE,45,0.0,0.0,71,0.00,,,0.00,WUHU216HW,2013-03-26 05:50:00,
2013-03-25 22:55:00,46.8,37.9,29.50,NE,45,0.0,0.0,71,0.00,,,0.00,WUHU216HW,2013-03-26 05:55:00,
2013-03-25 23:00:00,46.6,37.8,29.50,NE,45,0.0,0.0,71,0.00,,,0.00,WUHU216HW,2013-03-26 06:00:00,
2013-03-25 23:05:00,46.6,37.8,29.50,NE,45,0.0,0.2,71,0.00,,,0.00,WUHU216HW,2013-03-26 06:05:00,
2013-03-25 23:10:00,46.4,38.0,29.50,NE,45,0.0,0.2,72,0.00,,,0.00,WUHU216HW,2013-03-26 06:10:00,
2013-03-25 23:15:00,46.4,38.0,29.51,ESE,113,0.4,0.4,72,0.00,,,0.00,WUHU216HW,2013-03-26 06:15:00,
2013-03-25 23:20:00,46.1,37.6,29.51,ESE,113,0.4,1.1,72,0.00,,,0.00,WUHU216HW,2013-03-26 06:20:00,
2013-03-25 23:25:00,45.9,37.5,29.51,ESE,113,0.0,1.1,72,0.00,,,0.00,WUHU216HW,2013-03-26 06:25:00,
2013-03-25 23:30:00,45.7,37.3,29.51,ESE,113,0.0,0.4,72,0.00,,,0.00,WUHU216HW,2013-03-26 06:30:00,
2013-03-25 23:35:00,45.9,37.7,29.51,ESE,113,0.0,0.0,73,0.00,,,0.00,WUHU216HW,2013-03-26 06:35:00,
2013-03-25 23:40:00,45.9,37.7,29.51,ESE,113,0.0,0.0,73,0.00,,,0.00,WUHU216HW,2013-03-26 06:40:00,
2013-03-25 23:45:00,45.7,37.5,29.51,ESE,113,0.0,0.0,73,0.00,,,0.00,WUHU216HW,2013-03-26 06:45:00,
2013-03-25 23:50:00,45.7,37.5,29.51,ESE,113,0.0,0.0,73,0.00,,,0.00,WUHU216HW,2013-03-26 06:50:00,
2013-03-25 23:55:00,45.7,37.5,29.51,ESE,113,0.0,0.0,73,0.00,,,0.00,WUHU216HW,2013-03-26 06:55:00,